Regional Weather Roundup
Issued by NWS Albany, NY

Home | Current Version | Previous Version | Text Only | Print | Product List | Glossary On
Versions: 1 2 3 4 5 6 7 8 9 10 11 12 13 14 15 16 17 18 19 20 21 22 23 24 25 26 27 28
000
ASUS41 KALY 231810
RWRALY

NEW YORK STATE HOURLY WEATHER ROUNDUP
NATIONAL WEATHER SERVICE ALBANY NY
200 PM EDT WED AUG 23 2017

NOTE: "FAIR" INDICATES FEW OR NO CLOUDS BELOW 12,000 FEET WITH NO
SIGNIFICANT WEATHER AND/OR NO OBSTRUCTIONS TO VISIBILITY.

NYZ032-033-038>043-046>054-057>066-NYZ062>081-082-084-231900-
EAST


CITY           SKY/WX    TMP DP  RH WIND       PRES   REMARKS
ALBANY         MOSUNNY   76  51  41 W15G22    29.84R
GLENS FALLS    CLOUDY    74  52  46 NW3       29.79S
POUGHKEEPSIE   MOSUNNY   79  53  40 NW10      29.83S
NEWBURGH       MOSUNNY   77  59  53 W12G17    29.87S
MONTGOMERY     MOSUNNY   78  55  44 NW9       29.85S
WHITE PLAINS   MOSUNNY   79  53  40 NW16      29.84S
ISLIP          PTSUNNY   82  58  43 NW7       29.81S
NEW YORK CITY  PTSUNNY   80  54  40 N10       29.83S
CENTRAL PARK   MOSUNNY   80  53  39 VRB7      29.87S
$$

NYZ005>009-017-018-044>046-055-056-231900-
CENTRAL


CITY           SKY/WX    TMP DP  RH WIND       PRES   REMARKS
FULTON         MOSUNNY   73  56  54 W14G24    29.86S
SYRACUSE       PTSUNNY   74  54  49 W10G20    29.86R
ROME           PTSUNNY   71  54  54 W16       29.85S
ELMIRA         PTSUNNY   75  53  46 W10       29.89S
BINGHAMTON     SUNNY     69  49  48 NW9G16    29.91R
MONTICELLO     MOSUNNY   69  52  54 NW14      29.91S
$$

NYZ026>034-041>043-087-231900-
NORTH


CITY           SKY/WX    TMP DP  RH WIND       PRES   REMARKS
WATERTOWN      SUNNY     71  57  61 SW20G26   29.82S
FORT DRUM      NOT AVBL
OGDENSBURG     PTSUNNY   73  55  52 SW9G17    29.78S
MASSENA        PTSUNNY   70  54  56 SW16      29.77S
SARANAC LAKE   CLOUDY    67  50  54 W14G26    29.81R
PLATTSBURGH    MOSUNNY   77  51  40 MISG      29.75S
$$

NYZ001>004-010>016-019>021-085-231900-
WEST


CITY           SKY/WX    TMP DP  RH WIND       PRES   REMARKS
NIAGARA FALLS  PTSUNNY   76  52  43 SW17      29.86F
BUFFALO        MOSUNNY   72  54  53 SW21G26   29.87F
DUNKIRK        MOSUNNY   71  55  56 W14G25    29.92R
JAMESTOWN      MOSUNNY   68  50  52 W16G25    29.95R
WELLSVILLE     PTSUNNY   69  52  54 W10       29.95S
ROCHESTER      PTSUNNY   72  51  47 W10       29.87S
PENN YAN       MOSUNNY   73  48  41 W10       29.90S
$$

             KEY
       WCI = WIND CHILL INDEX
       VSB = VISIBILITY
       HX  = HEAT INDEX
$$




USA.gov is the U.S. government's official web portal to all federal, state and local government web resources and services.